Temp
22 22 22 22 22 21 21 21 21 20 20 19 19 20 19 19 19 19 19 19 19 19 19 19 19 19 19 18 18 18 19 19 19
21 22 22 23 22 22 21 21 21 21 21 20 20 19 19 19 19 19 19 19 19 19 19 19 19 19 19 19 18 19 19 19 19
22 22 22 22 22 22 22 22 21 21 21 21 20 20 20 19 19 19 19 19 19 19 19 19 19 19 19 20 19 19 19 19 19
23 23 23 23 23 23 22 22 21 21 20 20 21 20 20 20 19 19 18 18 19 20 19 19 19 19 20 20 19 19 19 19 19
24 24 24 23 23 22 21 21 21 21 20 20 20 20 20 21 21 19 19 19 18 19 19 19 19 19 19 19 19 19 19 19 19
24 25 24 23 22 21 21 21 21 21 21 21 20 20 19 20 20 20 20 19 19 18 19 19 19 19 19 19 19 19 19 19 19
24 24 24 23 22 22 22 22 22 21 20 19 18 19 20 20 20 20 20 20 19 19 19 18 19 19 19 19 19 19 19 19 19
24 23 23 22 22 21 21 21 21 20 20 19 19 19 19 20 18 18 19 20 19 19 19 18 19 19 19 19 19 19 19 19 19
22 23 22 22 22 21 21 20 20 20 20 20 19 19 19 19 18 18 19 19 19 19 19 18 18 19 19 19 19 19 19 19 19
22 22 22 22 22 21 21 20 20 20 19 19 18 18 18 19 18 17 17 18 19 19 19 18 18 18 19 19 19 19 19 19 19
22 22 23 22 22 21 20 20 19 18 17 17 18 18 18 18 17 17 17 17 18 19 19 19 18 18 18 18 19 19 19 19 19
24 24 24 22 22 21 20 21 19 18 17 17 17 17 17 17 16 17 17 17 18 19 18 19 19 19 19 18 19 19 19 19 18
24 24 24 22 21 21 20 19 18 17 17 16 16 16 16 17 17 17 17 18 18 18 19 19 19 19 19 19 19 19 18 19 18
24 24 23 22 21 21 20 20 18 17 16 16 16 16 16 16 16 16 17 17 18 18 18 18 18 17 18 18 18 18 18 19 19
24 23 22 21 21 20 19 19 18 18 17 17 16 16 16 15 15 16 17 17 18 17 17 17 18 17 17 18 17 17 18 18 18
23 22 21 21 21 21 20 19 19 19 18 17 16 15 14 14 14 15 16 17 18 18 17 17 17 17 17 16 17 18 17 17 17
22 22 21 21 21 20 20 19 18 18 18 18 17 16 14 13 13 14 15 16 16 17 17 16 16 16 15 15 15 15 15 15 15
21 21 21 21 21 20 20 19 18 17 17 16 16 16 15 14 14 14 15 16 16 16 16 16 16 16 16 16 16 15 15 14 13
19 20 21 21 20 20 19 19 18 18 17 17 16 16 15 15 14 14 14 15 16 16 16 16 15 15 15 15 16 16 15 13 13
17 16 19 20 21 20 19 18 18 18 17 16 16 16 15 14 13 13 12 13 14 15 15 15 15 14 14 14 15 15 14 13 13
Height
1485 1491 1495 1501 1507 1512 1515 1518 1521 1524 1528 1531 1535 1538 1541 1544 1546 1548 1551 1554 1557 1558 1560 1562 1564 1565 1566 1567 1568 1569 1568 1569 1570
1484 1488 1492 1496 1502 1506 1511 1513 1516 1519 1524 1528 1531 1534 1537 1540 1542 1545 1548 1551 1554 1556 1558 1560 1563 1563 1565 1565 1565 1565 1567 1567 1568
1481 1486 1489 1493 1497 1501 1506 1506 1512 1516 1520 1524 1527 1530 1532 1535 1537 1540 1542 1546 1549 1551 1554 1556 1558 1560 1562 1563 1564 1564 1564 1564 1566
1478 1481 1485 1488 1491 1495 1500 1504 1508 1513 1517 1520 1522 1523 1527 1529 1531 1534 1537 1539 1542 1546 1548 1550 1553 1556 1557 1559 1561 1562 1562 1562 1563
1477 1481 1484 1485 1488 1492 1497 1501 1506 1508 1511 1514 1517 1518 1521 1523 1526 1528 1530 1532 1537 1540 1542 1545 1548 1551 1552 1554 1556 1558 1559 1560 1561
1476 1481 1483 1484 1487 1490 1495 1498 1502 1505 1507 1508 1511 1512 1514 1519 1522 1524 1525 1528 1531 1535 1538 1540 1544 1546 1548 1550 1553 1556 1556 1557 1558
1476 1479 1481 1484 1487 1490 1493 1496 1499 1501 1502 1503 1505 1509 1513 1515 1517 1519 1521 1523 1526 1529 1532 1535 1537 1540 1543 1545 1548 1549 1551 1553 1553
1474 1477 1480 1482 1485 1489 1492 1494 1496 1497 1498 1500 1502 1505 1508 1509 1511 1513 1515 1517 1521 1524 1526 1528 1532 1535 1538 1541 1542 1544 1546 1547 1548
1474 1477 1480 1483 1485 1488 1492 1493 1494 1495 1495 1497 1499 1501 1503 1505 1507 1509 1509 1512 1515 1519 1522 1524 1527 1529 1532 1535 1537 1539 1541 1542 1543
1471 1474 1477 1482 1485 1488 1491 1493 1494 1493 1494 1496 1497 1497 1498 1500 1502 1502 1504 1506 1509 1513 1516 1519 1521 1524 1527 1528 1530 1533 1535 1537 1538
1469 1474 1476 1482 1486 1489 1491 1492 1493 1494 1494 1496 1497 1497 1497 1497 1497 1498 1500 1501 1504 1508 1511 1514 1516 1518 1521 1523 1524 1528 1529 1531 1532
1465 1470 1474 1479 1484 1487 1490 1492 1493 1493 1494 1495 1496 1496 1496 1496 1495 1495 1496 1498 1500 1501 1503 1507 1510 1513 1515 1517 1518 1521 1523 1525 1525
1463 1468 1472 1476 1480 1483 1486 1489 1491 1493 1494 1494 1495 1496 1497 1496 1495 1495 1495 1495 1496 1496 1498 1501 1504 1506 1508 1511 1512 1513 1515 1517 1518
1460 1465 1471 1476 1480 1483 1484 1485 1488 1491 1492 1493 1494 1495 1495 1495 1495 1494 1492 1492 1492 1493 1495 1495 1498 1500 1502 1506 1506 1506 1507 1509 1509
1455 1462 1470 1475 1478 1482 1484 1485 1487 1489 1491 1491 1492 1493 1494 1494 1492 1492 1492 1491 1489 1490 1491 1492 1492 1491 1488 1492 1498 1499 1501 1501 1501
1451 1460 1467 1472 1476 1479 1483 1484 1487 1488 1489 1490 1490 1491 1491 1492 1492 1491 1490 1488 1488 1488 1488 1488 1488 1489 1491 1492 1496 1494 1494 1493 1492
1449 1457 1465 1470 1475 1479 1481 1484 1487 1489 1490 1489 1489 1488 1489 1490 1491 1490 1488 1486 1486 1486 1485 1485 1485 1487 1489 1490 1489 1488 1487 1487 1485
1447 1456 1462 1467 1472 1476 1479 1483 1486 1488 1489 1490 1489 1488 1487 1488 1488 1488 1486 1485 1484 1485 1484 1484 1484 1486 1486 1485 1485 1482 1480 1479 1479
1452 1461 1461 1465 1470 1474 1478 1481 1484 1486 1487 1489 1488 1487 1486 1486 1487 1487 1487 1486 1486 1486 1485 1484 1485 1485 1485 1483 1482 1479 1475 1474 1473
1460 1458 1469 1467 1468 1472 1476 1479 1482 1484 1485 1486 1486 1485 1484 1483 1484 1485 1484 1485 1484 1485 1484 1485 1486 1486 1485 1484 1482 1480 1478 1476 1476
Wind_Speed
29 33 35 37 35 32 30 31 33 32 32 31 28 26 24 24 24 29 25 20 18 17 17 18 16 16 16 15 13 12 11 13 15
24 27 30 34 33 33 34 29 38 34 30 30 27 28 27 27 27 30 30 25 23 22 18 19 18 15 15 15 14 12 13 12 12
22 25 28 29 31 32 31 29 30 31 29 28 28 26 26 28 29 30 32 29 26 25 23 20 20 18 20 21 17 14 14 13 12
20 25 26 29 32 33 35 30 28 31 33 32 24 27 26 26 28 30 31 32 28 27 25 21 23 20 17 18 20 20 20 17 16
19 20 21 23 27 26 31 29 28 26 29 34 33 32 35 27 27 29 30 31 33 29 27 26 27 25 21 19 18 21 23 23 20
17 19 18 17 17 20 24 23 22 21 24 26 28 26 23 33 34 31 29 28 28 32 29 28 29 26 22 20 21 21 23 24 22
24 22 20 18 16 16 20 21 25 24 25 23 25 23 23 25 33 31 29 27 26 28 29 31 30 29 25 24 23 22 26 26 23
26 24 23 19 16 15 16 20 21 22 21 23 30 29 31 18 18 27 29 29 28 29 29 29 32 29 27 26 25 26 26 28 27
30 28 25 22 16 14 14 14 14 13 16 19 26 28 30 29 25 22 30 29 28 27 29 28 31 33 31 30 30 26 26 27 27
37 33 25 20 16 12 9 8 8 9 11 14 17 20 20 23 29 25 21 24 28 34 32 28 28 28 28 27 26 26 26 26 28
37 31 24 22 19 15 10 6 4 7 11 12 12 13 14 15 17 17 25 24 23 29 33 35 31 30 32 31 32 29 27 25 27
36 32 26 25 22 16 11 7 6 6 6 7 6 4 5 10 10 11 15 23 27 30 34 31 29 29 33 33 33 32 31 28 31
38 32 28 29 23 18 12 10 11 9 8 7 7 8 7 5 5 7 12 13 17 21 26 27 30 31 31 30 30 28 33 34 32
38 35 34 29 24 17 13 10 11 11 11 11 11 10 9 8 8 8 9 11 13 19 21 21 23 25 29 30 30 28 31 34 35
40 41 36 28 23 18 13 10 9 9 9 8 9 10 11 12 12 12 13 12 12 11 15 17 16 19 21 41 38 38 33 34 35
45 42 36 28 23 18 14 10 6 4 4 5 8 8 8 7 7 7 8 10 11 12 13 13 14 14 16 21 28 29 33 31 29
48 41 34 28 23 19 15 11 7 4 1 5 4 7 8 9 8 9 7 7 7 8 9 10 11 14 17 18 20 23 24 26 26
45 39 33 27 24 19 15 12 9 3 1 1 5 6 5 9 10 8 4 2 0 1 3 4 3 2 2 4 7 12 17 22 23
38 34 30 26 21 18 17 16 10 2 1 3 6 8 8 11 11 8 6 4 2 2 2 3 4 5 6 8 9 10 8 4 8
20 6 29 24 20 21 20 17 9 4 6 6 7 9 8 9 11 12 9 5 6 5 4 3 4 5 7 9 10 12 15 16 14
Wind_Direction
207 209 215 220 216 217 218 218 218 221 227 231 225 230 233 239 239 230 233 238 242 256 255 250 254 255 268 265 268 270 243 245 244
202 212 217 221 224 217 216 224 222 231 226 227 229 235 235 239 239 231 234 242 244 245 252 257 251 253 262 263 260 262 248 244 240
205 217 224 225 220 217 213 228 226 222 228 236 247 247 242 242 241 239 236 241 247 245 248 254 252 251 258 260 254 253 249 241 234
208 215 223 223 226 225 217 227 228 233 231 231 248 237 238 241 245 242 245 238 241 242 243 249 241 246 258 256 256 258 248 240 236
199 209 221 228 232 231 220 224 230 234 230 230 246 252 249 235 253 244 241 240 241 244 241 242 239 245 248 248 257 247 246 242 241
189 196 213 224 231 226 217 219 225 232 238 243 237 244 240 240 244 241 238 238 243 241 244 243 242 243 241 244 248 251 247 245 248
167 180 191 204 212 213 223 225 232 245 252 248 228 224 229 253 243 241 240 240 245 246 244 248 243 241 242 245 249 263 247 251 249
171 179 194 191 187 198 213 226 239 247 245 234 230 238 248 256 241 233 239 241 242 247 245 243 245 247 249 254 250 254 253 249 251
176 184 184 184 187 200 206 224 233 233 234 229 233 236 250 254 246 258 244 237 237 244 248 247 245 246 250 253 255 256 252 252 254
181 181 174 176 190 201 207 209 223 242 229 227 233 244 251 248 259 262 237 237 239 241 243 244 246 248 250 251 252 251 253 254 255
187 183 176 184 191 193 209 237 222 189 209 220 231 242 250 251 265 256 251 233 241 245 239 239 242 247 254 259 256 256 254 255 257
193 187 183 187 191 193 195 215 215 199 184 179 212 240 260 254 270 263 251 244 250 257 240 235 243 248 256 261 261 258 256 255 256
197 191 186 189 186 187 195 196 200 203 208 216 239 258 263 251 260 257 252 248 250 245 234 248 253 265 253 261 260 258 255 254 256
195 190 188 188 183 189 184 185 189 205 222 235 241 244 252 260 272 280 286 276 264 251 256 263 263 259 257 263 260 261 264 263 264
188 184 181 183 180 177 175 171 184 209 230 242 238 244 251 264 274 275 274 273 269 266 254 256 264 265 255 257 266 264 271 270 268
183 179 178 178 175 171 163 153 165 202 239 263 266 237 236 244 269 291 279 263 259 259 255 250 252 251 246 240 243 252 260 267 266
174 177 176 171 175 173 168 162 161 160 274 305 320 262 226 241 261 286 292 284 266 253 248 245 245 250 249 253 259 264 262 264 264
173 175 174 176 180 181 182 187 187 198 313 130 4 349 270 234 248 279 308 286 239 161 124 112 115 163 241 269 272 271 268 263 263
173 177 177 179 183 191 196 196 195 253 224 333 332 335 307 248 239 254 258 271 252 210 153 114 102 91 83 73 55 47 32 309 282
156 266 205 194 198 202 202 196 192 237 235 274 299 314 300 262 245 253 265 272 265 251 231 195 148 125 108 98 81 68 70 66 59